Skip Page Navigation
NASA JPL Caltech
NASA Logo - Jet Propulsion Laboratory + View the NASA Portal
+ Center for Near-Earth Object Studies
JPL Home Earth Solar System Stars & Galaxies Technology
JPL Solar System Dynamics
BODIES ORBITS EPHEMERIDES TOOLS PHYSICAL DATA DISCOVERY FAQ SITE MAP
JPL Small-Body Database Browser
Search: [ help ]  
(2013 OP5)
Classification: Outer Main-belt Asteroid          SPK-ID: 3645217
Ephemeris | Orbit Diagram | Orbital Elements | Mission Design | Physical Parameters | Close-Approach Data ]

[ show orbit diagram ]
Orbital Elements at Epoch 2459200.5 (2020-Dec-17.0) TDB
Reference: JPL 13 (heliocentric ecliptic J2000)
 Element Value Uncertainty (1-sigma)   Units 
e .5855185012228024 3.2809e-05  
a 3.226215537047211 0.00026556 au
q 1.33720665117361 4.2525e-06 au
i 6.651975051180825 0.00025225 deg
node 340.4425409671487 6.3522e-05 deg
peri 343.0160398894304 0.00019009 deg
M 97.16966827819755 0.056385 deg
tp 2458629.196724843827
(2019-May-25.69672484)
0.26098 TDB
period 2116.598550767815
5.79
0.26134
0.0007155
d
yr
n .1700842135932706 2.1e-05 deg/d
Q 5.115224422920813 0.00042105 au
  Orbit Determination Parameters
   # obs. used (total)      88  
   data-arc span      75 days  
   first obs. used      2013-07-29  
   last obs. used      2013-10-12  
   planetary ephem.      DE441  
   SB-pert. ephem.      SB441-N16  
   condition code      5  
   norm. resid. RMS      .50963  
   source      ORB  
   producer      Otto Matic  
   solution date      2021-Apr-15 08:20:25  

Additional Information
 Earth MOID = .32558 au 
 Jupiter MOID = .270026 au 
 T_jup = 2.881 
[ show covariance matrix ]

Ephemeris | Orbit Diagram | Orbital Elements | Mission Design | Physical Parameters | Close-Approach Data ]

Physical Parameter Table
Parameter Symbol Value Units Sigma Reference Notes
absolute magnitude H 20.1   n/a E2013R83  

[ show close-approach data ]
Ephemeris | Orbit Diagram | Orbital Elements | Mission Design | Physical Parameters | Close-Approach Data ]
ABOUT SSD CREDITS/AWARDS PRIVACY/COPYRIGHT GLOSSARY LINKS
FirstGov 2021-May-17 22:40 UT
(server date/time)  
NASA Home Page
Site Manager:   Ryan S. Park
Webmaster  Alan B. Chamberlin